SWA1545 KHOU-KDAL

Flight info

Callsign SWA1545
Flight time N/A
Altitude 30000
Route WYLSN8 MAJKK REDDN4
Aircraft B733/M-SDE2E3FHIRW/S

Departure

Time N/A
Airport William P. Hobby Airport (KHOU)

Arrival

Time 2026-05-05 11:19
Airport Dallas Love Field (KDAL)
Time Latitude Longitude Altitude Speed Heading
2026-05-05 11:10 32.80938 -96.67701 9043 ft 261 kts 313°
2026-05-05 11:11 32.82260 -96.69185 9037 ft 261 kts 312°
2026-05-05 11:11 32.83577 -96.70672 8884 ft 254 kts 312°
2026-05-05 11:11 32.84859 -96.72111 8538 ft 250 kts 312°
2026-05-05 11:11 32.86114 -96.73508 8177 ft 247 kts 312°
2026-05-05 11:12 32.87383 -96.74914 7809 ft 245 kts 312°
2026-05-05 11:12 32.88622 -96.76274 7447 ft 243 kts 312°
2026-05-05 11:12 32.89868 -96.77631 7084 ft 240 kts 312°
2026-05-05 11:12 32.91104 -96.78970 6723 ft 234 kts 312°
2026-05-05 11:13 32.92302 -96.80250 6348 ft 228 kts 312°
2026-05-05 11:13 32.93478 -96.81499 5972 ft 224 kts 312°
2026-05-05 11:13 32.94638 -96.82716 5602 ft 221 kts 311°
2026-05-05 11:13 32.95797 -96.83913 5255 ft 215 kts 312°
2026-05-05 11:14 32.96912 -96.85072 4913 ft 206 kts 306°
2026-05-05 11:14 32.97520 -96.86506 4527 ft 186 kts 269°
2026-05-05 11:14 32.97235 -96.87933 4144 ft 176 kts 232°
2026-05-05 11:14 32.96336 -96.88906 3795 ft 172 kts 216°
2026-05-05 11:15 32.95364 -96.89674 3410 ft 164 kts 215°
2026-05-05 11:15 32.94428 -96.90414 3034 ft 157 kts 215°
2026-05-05 11:15 32.93549 -96.91134 2708 ft 147 kts 215°
2026-05-05 11:15 32.92733 -96.91827 2325 ft 143 kts 215°
2026-05-05 11:16 32.91885 -96.92403 1957 ft 137 kts 194°
2026-05-05 11:16 32.91014 -96.92349 1930 ft 117 kts 162°
2026-05-05 11:16 32.90263 -96.91766 1973 ft 139 kts 150°
2026-05-05 11:16 32.89497 -96.91015 1780 ft 138 kts 151°
2026-05-05 11:17 32.88743 -96.90356 1552 ft 136 kts 153°
2026-05-05 11:17 32.87977 -96.89603 1286 ft 144 kts 144°
2026-05-05 11:17 32.87284 -96.88789 1056 ft 137 kts 144°
2026-05-05 11:17 32.86573 -96.88017 885 ft 139 kts 143°
2026-05-05 11:18 32.85862 -96.87185 735 ft 144 kts 141°
2026-05-05 11:18 32.85153 -96.86360 538 ft 142 kts 141°
2026-05-05 11:18 32.84493 -96.85611 480 ft 110 kts 136°
2026-05-05 11:18 32.84062 -96.85107 480 ft 62 kts 135°
2026-05-05 11:19 32.83865 -96.84871 480 ft 32 kts 136°
2026-05-05 11:19 32.83738 -96.84731 480 ft 10 kts 126°
2026-05-05 11:19 32.83762 -96.84654 480 ft 13 kts 39°
2026-05-05 11:19 32.83831 -96.84650 480 ft 8 kts 312°
2026-05-05 11:20 32.83884 -96.84722 480 ft 14 kts 310°
2026-05-05 11:20 32.83970 -96.84827 480 ft 20 kts 314°
2026-05-05 11:20 32.84085 -96.84959 480 ft 24 kts 318°
2026-05-05 11:20 32.84210 -96.85094 480 ft 24 kts 312°
2026-05-05 11:21 32.84331 -96.85237 480 ft 24 kts 315°
2026-05-05 11:21 32.84435 -96.85343 480 ft 15 kts 338°
2026-05-05 11:21 32.84542 -96.85344 481 ft 15 kts
2026-05-05 11:21 32.84586 -96.85330 481 ft 2 kts 83°
2026-05-05 11:22 32.84588 -96.85291 481 ft 6 kts 82°
2026-05-05 11:22 32.84595 -96.85237 482 ft 6 kts 81°
2026-05-05 11:22 32.84596 -96.85225 482 ft 0 kts 81°
2026-05-05 11:22 32.84597 -96.85223 482 ft 0 kts 81°